User: anonymous   Login
Location: Unspecified
(0.0000°N, 0.0000°E)
Time: 18:06:44
(UTC+00:00)
Language:

STARLINK-5019 - Orbit

View from above orbital plane
View from above orbital plane
View from above satellite
View from above satellite

Ground track
Ground track

The orbit is defined by the following mean orbital elements,

1 55407U          26145.53324558 +.00000000 +00000-0 +49868-4 0 00006
2 55407  69.9993 230.7914 0003439 269.8108  90.2657 14.98333825    02
Epoch (UTC): 25 May 2026 12:47:52
Eccentricity: 0.0003439
inclination: 69.9993°
perigee height: 570 km
apogee height: 574 km
right ascension of ascending node: 230.7914°
argument of perigee: 269.8108°
revolutions per day: 14.98333825
mean anomaly at epoch: 90.2657°

The dashed part of the orbit path shows where the satellite is in the earth's shadow,  

DLR